ITY1767 LIRF-LICJ

Flight info

Callsign ITY1767
Flight time 0h 47m
Altitude 33000
Route ROTUN DCT GIANO
Aircraft A320/M-SDE3FGHIRWY/LB1

Departure

Time 2026-05-03 21:44
Airport Rome–Fiumicino Leonardo da Vinci International Airport (LIRF)

Arrival

Time 2026-05-03 22:31
Airport Falcone–Borsellino Airport (LICJ)
Time Latitude Longitude Altitude Speed Heading
2026-05-03 21:20 41.79756 12.25501 14 ft 0 kts 115°
2026-05-03 21:34 41.79762 12.25485 14 ft 3 kts 109°
2026-05-03 21:34 41.79767 12.25459 15 ft 3 kts 90°
2026-05-03 21:35 41.79764 12.25434 15 ft 3 kts 52°
2026-05-03 21:35 41.79756 12.25423 15 ft 1 kts 25°
2026-05-03 21:35 41.79755 12.25422 15 ft 0 kts 25°
2026-05-03 21:38 41.79756 12.25423 14 ft 1 kts 25°
2026-05-03 21:38 41.79798 12.25449 14 ft 9 kts 25°
2026-05-03 21:38 41.79853 12.25484 15 ft 8 kts 25°
2026-05-03 21:38 41.79907 12.25518 14 ft 11 kts 25°
2026-05-03 21:39 41.79971 12.25558 14 ft 9 kts 25°
2026-05-03 21:39 41.79993 12.25629 14 ft 13 kts 105°
2026-05-03 21:39 41.79953 12.25747 14 ft 13 kts 115°
2026-05-03 21:39 41.79939 12.25855 14 ft 11 kts 58°
2026-05-03 21:40 41.80012 12.25909 14 ft 13 kts 24°
2026-05-03 21:40 41.80087 12.25956 14 ft 11 kts 25°
2026-05-03 21:40 41.80171 12.26007 15 ft 15 kts 24°
2026-05-03 21:40 41.80267 12.26066 15 ft 15 kts 26°
2026-05-03 21:41 41.80359 12.26125 15 ft 14 kts 25°
2026-05-03 21:41 41.80451 12.26173 18 ft 15 kts
2026-05-03 21:41 41.80555 12.26183 16 ft 16 kts 18°
2026-05-03 21:41 41.80661 12.26194 19 ft 11 kts 344°
2026-05-03 21:42 41.80710 12.26151 18 ft 5 kts 302°
2026-05-03 21:42 41.80712 12.26129 19 ft 1 kts 273°
2026-05-03 21:42 41.80713 12.26101 19 ft 4 kts 270°
2026-05-03 21:42 41.80712 12.26088 19 ft 2 kts 265°
2026-05-03 21:43 41.80704 12.26002 20 ft 20 kts 253°
2026-05-03 21:43 41.80581 12.25551 17 ft 88 kts 250°
2026-05-03 21:43 41.80299 12.24519 16 ft 146 kts 250°
2026-05-03 21:43 41.79918 12.23140 370 ft 163 kts 249°
2026-05-03 21:44 41.79510 12.21719 1127 ft 163 kts 249°
2026-05-03 21:44 41.79281 12.20259 1905 ft 160 kts 270°
2026-05-03 21:44 41.79290 12.18675 2337 ft 181 kts 269°
2026-05-03 21:44 41.79272 12.16894 2776 ft 199 kts 268°
2026-05-03 21:45 41.79118 12.14980 3300 ft 211 kts 248°
2026-05-03 21:45 41.78279 12.13410 4141 ft 209 kts 220°
2026-05-03 21:45 41.77157 12.12148 4975 ft 210 kts 219°
2026-05-03 21:45 41.76038 12.10894 5760 ft 212 kts 218°
2026-05-03 21:46 41.74908 12.09611 6521 ft 214 kts 219°
2026-05-03 21:46 41.73758 12.08308 7167 ft 223 kts 213°
2026-05-03 21:46 41.72254 12.07576 7511 ft 244 kts 181°
2026-05-03 21:46 41.70497 12.07886 7900 ft 266 kts 168°
2026-05-03 21:47 41.68670 12.08394 8568 ft 276 kts 168°
2026-05-03 21:47 41.66773 12.08941 9408 ft 282 kts 168°
2026-05-03 21:47 41.64828 12.09503 10070 ft 290 kts 168°
2026-05-03 21:47 41.62819 12.10077 10595 ft 305 kts 168°
2026-05-03 21:48 41.60661 12.10685 10885 ft 328 kts 168°
2026-05-03 21:48 41.58385 12.11320 11453 ft 338 kts 168°
2026-05-03 21:48 41.56056 12.11964 12201 ft 343 kts 168°
2026-05-03 21:48 41.53707 12.12613 12971 ft 347 kts 168°
2026-05-03 21:49 41.51328 12.13268 13741 ft 351 kts 169°
2026-05-03 21:49 41.48924 12.13932 14434 ft 355 kts 169°
2026-05-03 21:49 41.46495 12.14606 15097 ft 358 kts 169°
2026-05-03 21:49 41.44037 12.15289 15744 ft 363 kts 169°
2026-05-03 21:50 41.41549 12.15977 16386 ft 367 kts 169°
2026-05-03 21:50 41.39041 12.16669 17024 ft 371 kts 169°
2026-05-03 21:50 41.36546 12.17356 17646 ft 374 kts 169°
2026-05-03 21:50 41.33982 12.18064 18285 ft 378 kts 169°
2026-05-03 21:51 41.31387 12.18781 18859 ft 382 kts 169°
2026-05-03 21:51 41.28768 12.19501 19396 ft 386 kts 169°
2026-05-03 21:51 41.26157 12.20214 19939 ft 390 kts 169°
2026-05-03 21:51 41.23488 12.20943 20485 ft 394 kts 169°
2026-05-03 21:52 41.20788 12.21685 21030 ft 398 kts 169°
2026-05-03 21:52 41.18069 12.22435 21570 ft 402 kts 170°
2026-05-03 21:52 41.15311 12.23193 22111 ft 406 kts 170°
2026-05-03 21:52 41.12533 12.23955 22649 ft 410 kts 170°
2026-05-03 21:53 41.09727 12.24720 23159 ft 413 kts 170°
2026-05-03 21:53 41.06897 12.25494 23666 ft 417 kts 170°
2026-05-03 21:53 41.04043 12.26276 24092 ft 421 kts 170°
2026-05-03 21:53 41.01158 12.27062 24510 ft 424 kts 170°
2026-05-03 21:54 40.98257 12.27853 24916 ft 427 kts 170°
2026-05-03 21:54 40.95339 12.28650 25311 ft 430 kts 170°
2026-05-03 21:54 40.92398 12.29451 25706 ft 433 kts 170°
2026-05-03 21:54 40.89475 12.30243 26088 ft 435 kts 171°
2026-05-03 21:55 40.86468 12.30704 26457 ft 436 kts 179°
2026-05-03 21:55 40.83429 12.30917 26829 ft 438 kts 179°
2026-05-03 21:55 40.80368 12.31131 27206 ft 441 kts 179°
2026-05-03 21:55 40.77298 12.31349 27573 ft 443 kts 179°
2026-05-03 21:56 40.74209 12.31574 27928 ft 446 kts 179°
2026-05-03 21:56 40.71095 12.31799 28273 ft 449 kts 179°
2026-05-03 21:56 40.67967 12.32023 28615 ft 452 kts 179°
2026-05-03 21:56 40.64822 12.32248 28957 ft 454 kts 179°
2026-05-03 21:57 40.61663 12.32475 29278 ft 457 kts 179°
2026-05-03 21:57 40.58483 12.32706 29601 ft 459 kts 179°
2026-05-03 21:57 40.55284 12.32938 29909 ft 461 kts 179°
2026-05-03 21:57 40.52066 12.33172 30210 ft 464 kts 179°
2026-05-03 21:58 40.48871 12.33400 30462 ft 466 kts 179°
2026-05-03 21:58 40.45627 12.33632 30717 ft 468 kts 179°
2026-05-03 21:58 40.42378 12.33868 30973 ft 469 kts 179°
2026-05-03 21:58 40.39115 12.34105 31236 ft 470 kts 180°
2026-05-03 21:59 40.35850 12.34337 31540 ft 469 kts 180°
2026-05-03 21:59 40.32597 12.34567 31906 ft 467 kts 180°
2026-05-03 21:59 40.29362 12.34800 32267 ft 466 kts 180°
2026-05-03 21:59 40.26130 12.35035 32620 ft 464 kts 180°
2026-05-03 22:00 40.22908 12.35265 32974 ft 463 kts 180°
2026-05-03 22:00 40.19687 12.35490 33160 ft 462 kts 180°
2026-05-03 22:00 40.13360 12.35940 33189 ft 451 kts 180°
2026-05-03 22:01 40.07115 12.36378 33189 ft 449 kts 180°
2026-05-03 22:01 40.00915 12.36807 33191 ft 449 kts 180°
2026-05-03 22:02 39.94670 12.37250 33187 ft 449 kts 180°
2026-05-03 22:02 39.88430 12.37697 33191 ft 450 kts 180°
2026-05-03 22:03 39.83231 12.38065 33186 ft 450 kts 180°
2026-05-03 22:03 39.76979 12.38502 33186 ft 450 kts 180°
2026-05-03 22:04 39.70722 12.38947 33181 ft 451 kts 180°
2026-05-03 22:04 39.64457 12.39387 33179 ft 451 kts 180°
2026-05-03 22:05 39.58187 12.39819 33175 ft 451 kts 180°
2026-05-03 22:05 39.51809 12.40261 33193 ft 464 kts 180°
2026-05-03 22:06 39.45341 12.40710 33192 ft 466 kts 180°
2026-05-03 22:06 39.38862 12.41166 33190 ft 466 kts 180°
2026-05-03 22:07 39.32394 12.41622 32584 ft 466 kts 180°
2026-05-03 22:07 39.29147 12.41854 31754 ft 467 kts 180°
2026-05-03 22:07 39.25959 12.42083 31071 ft 464 kts 180°
2026-05-03 22:08 39.22751 12.42310 30439 ft 460 kts 180°
2026-05-03 22:08 39.19566 12.42533 29758 ft 456 kts 180°
2026-05-03 22:08 39.16418 12.42749 29103 ft 451 kts 180°
2026-05-03 22:08 39.13299 12.42957 28470 ft 447 kts 180°
2026-05-03 22:09 39.10208 12.43162 27864 ft 442 kts 180°
2026-05-03 22:09 39.07145 12.43367 27276 ft 438 kts 179°
2026-05-03 22:09 39.04119 12.43569 26710 ft 434 kts 179°
2026-05-03 22:10 38.98149 12.43978 25592 ft 426 kts 179°
2026-05-03 22:10 38.95206 12.44182 25144 ft 419 kts 179°
2026-05-03 22:10 38.92295 12.44388 24559 ft 418 kts 178°
2026-05-03 22:10 38.89458 12.45063 24261 ft 412 kts 165°
2026-05-03 22:11 38.86852 12.46539 23948 ft 408 kts 150°
2026-05-03 22:11 38.84649 12.48811 23493 ft 406 kts 133°
2026-05-03 22:11 38.82909 12.51652 22973 ft 404 kts 127°
2026-05-03 22:11 38.81267 12.54513 22475 ft 401 kts 127°
2026-05-03 22:12 38.79628 12.57393 22005 ft 398 kts 126°
2026-05-03 22:12 38.78003 12.60251 21547 ft 395 kts 126°
2026-05-03 22:12 38.76385 12.63080 21082 ft 392 kts 127°
2026-05-03 22:12 38.74772 12.65883 20626 ft 389 kts 127°
2026-05-03 22:13 38.73170 12.68657 20180 ft 386 kts 127°
2026-05-03 22:13 38.71575 12.71412 19746 ft 383 kts 126°
2026-05-03 22:13 38.69995 12.74137 19322 ft 380 kts 126°
2026-05-03 22:13 38.68424 12.76848 18910 ft 377 kts 126°
2026-05-03 22:14 38.66866 12.79538 18501 ft 375 kts 126°
2026-05-03 22:14 38.65329 12.82196 18258 ft 366 kts 126°
2026-05-03 22:14 38.63840 12.84769 18123 ft 354 kts 126°
2026-05-03 22:14 38.62390 12.87268 17876 ft 347 kts 126°
2026-05-03 22:15 38.60957 12.89734 17517 ft 344 kts 126°
2026-05-03 22:15 38.59553 12.92109 17360 ft 334 kts 130°
2026-05-03 22:15 38.57976 12.94244 17227 ft 325 kts 134°
2026-05-03 22:15 38.56463 12.96225 17101 ft 316 kts 134°
2026-05-03 22:16 38.54946 12.98198 16974 ft 307 kts 134°
2026-05-03 22:16 38.53471 13.00119 16848 ft 299 kts 134°
2026-05-03 22:16 38.52034 13.01988 16719 ft 291 kts 134°
2026-05-03 22:16 38.50635 13.03806 16576 ft 284 kts 134°
2026-05-03 22:17 38.49221 13.05642 15858 ft 299 kts 134°
2026-05-03 22:17 38.47722 13.07590 15077 ft 316 kts 134°
2026-05-03 22:17 38.46140 13.09648 14260 ft 333 kts 134°
2026-05-03 22:17 38.44714 13.12020 13444 ft 342 kts 113°
2026-05-03 22:18 38.44148 13.14843 13272 ft 328 kts 90°
2026-05-03 22:18 38.44411 13.17695 13137 ft 314 kts 75°
2026-05-03 22:18 38.44916 13.20333 12962 ft 306 kts 74°
2026-05-03 22:18 38.45437 13.22947 12654 ft 302 kts 74°
2026-05-03 22:19 38.45957 13.25546 12217 ft 305 kts 74°
2026-05-03 22:19 38.46486 13.28178 11745 ft 307 kts 74°
2026-05-03 22:19 38.47019 13.30821 11306 ft 308 kts 74°
2026-05-03 22:19 38.47552 13.33470 10869 ft 308 kts 74°
2026-05-03 22:20 38.48085 13.36121 10435 ft 308 kts 74°
2026-05-03 22:20 38.48618 13.38767 10004 ft 308 kts 74°
2026-05-03 22:20 38.49154 13.41412 9532 ft 307 kts 74°
2026-05-03 22:20 38.49690 13.44044 9068 ft 306 kts 74°
2026-05-03 22:21 38.50229 13.46671 8608 ft 305 kts 74°
2026-05-03 22:21 38.50589 13.49321 8235 ft 300 kts 90°
2026-05-03 22:21 38.50238 13.51856 8105 ft 286 kts 110°
2026-05-03 22:21 38.49239 13.54034 7988 ft 285 kts 130°
2026-05-03 22:22 38.47714 13.55596 7852 ft 276 kts 152°
2026-05-03 22:22 38.45972 13.56336 7728 ft 255 kts 172°
2026-05-03 22:22 38.44269 13.56334 7602 ft 237 kts 190°
2026-05-03 22:22 38.42725 13.55726 7411 ft 231 kts 207°
2026-05-03 22:23 38.41404 13.54587 7192 ft 229 kts 224°
2026-05-03 22:23 38.40285 13.53143 6977 ft 229 kts 226°
2026-05-03 22:23 38.39169 13.51705 6745 ft 227 kts 225°
2026-05-03 22:23 38.38071 13.50297 6518 ft 227 kts 225°
2026-05-03 22:24 38.36961 13.48874 6296 ft 226 kts 225°
2026-05-03 22:24 38.35858 13.47459 6064 ft 225 kts 224°
2026-05-03 22:24 38.34760 13.46048 5846 ft 224 kts 224°
2026-05-03 22:24 38.33668 13.44643 5616 ft 222 kts 224°
2026-05-03 22:25 38.32571 13.43235 5268 ft 225 kts 224°
2026-05-03 22:25 38.31470 13.41826 5005 ft 223 kts 224°
2026-05-03 22:25 38.30386 13.40440 4768 ft 219 kts 224°
2026-05-03 22:25 38.29321 13.39079 4591 ft 212 kts 224°
2026-05-03 22:26 38.28303 13.37772 4341 ft 204 kts 224°
2026-05-03 22:26 38.27324 13.36514 4133 ft 196 kts 224°
2026-05-03 22:26 38.26426 13.35262 3940 ft 189 kts 234°
2026-05-03 22:26 38.25845 13.33784 3713 ft 187 kts 246°
2026-05-03 22:27 38.25342 13.32267 3456 ft 186 kts 246°
2026-05-03 22:27 38.24838 13.30758 3193 ft 185 kts 245°
2026-05-03 22:27 38.24337 13.29258 2940 ft 184 kts 246°
2026-05-03 22:27 38.23839 13.27771 2700 ft 182 kts 245°
2026-05-03 22:28 38.23352 13.26312 2457 ft 176 kts 245°
2026-05-03 22:28 38.22924 13.25028 2236 ft 167 kts 245°
2026-05-03 22:28 38.22506 13.23776 2041 ft 156 kts 245°
2026-05-03 22:28 38.22090 13.22541 1849 ft 148 kts 245°
2026-05-03 22:29 38.21690 13.21350 1662 ft 145 kts 245°
2026-05-03 22:29 38.21303 13.20193 1460 ft 143 kts 245°
2026-05-03 22:29 38.20910 13.19021 1272 ft 142 kts 245°
2026-05-03 22:29 38.20527 13.17875 1088 ft 140 kts 245°
2026-05-03 22:30 38.20151 13.16757 927 ft 138 kts 245°
2026-05-03 22:30 38.19764 13.15645 759 ft 137 kts 245°
2026-05-03 22:30 38.19397 13.14537 555 ft 135 kts 245°
2026-05-03 22:30 38.19048 13.13438 354 ft 134 kts 246°
2026-05-03 22:31 38.18689 13.12355 199 ft 133 kts 244°
2026-05-03 22:31 38.18322 13.11288 75 ft 126 kts 243°
2026-05-03 22:31 38.18025 13.10422 66 ft 84 kts 246°
2026-05-03 22:31 38.17851 13.09909 62 ft 33 kts 245°
2026-05-03 22:32 38.17795 13.09739 68 ft 21 kts 247°
2026-05-03 22:32 38.17727 13.09533 63 ft 26 kts 246°
2026-05-03 22:32 38.17655 13.09314 67 ft 27 kts 249°
2026-05-03 22:32 38.17624 13.09125 72 ft 14 kts 304°
2026-05-03 22:33 38.17654 13.09128 68 ft 8 kts 27°
2026-05-03 22:33 38.17743 13.09188 70 ft 18 kts 29°
2026-05-03 22:33 38.17842 13.09278 69 ft 17 kts 50°
2026-05-03 22:33 38.17894 13.09420 64 ft 20 kts 70°
2026-05-03 22:34 38.17951 13.09591 61 ft 22 kts 67°
2026-05-03 22:34 38.18014 13.09783 61 ft 25 kts 66°
2026-05-03 22:34 38.18086 13.09991 63 ft 27 kts 66°
2026-05-03 22:34 38.18153 13.10187 59 ft 24 kts 67°
2026-05-03 22:35 38.18217 13.10355 66 ft 17 kts 39°
2026-05-03 22:35 38.18308 13.10411 59 ft 14 kts 57°
2026-05-03 22:35 38.18364 13.10492 65 ft 12 kts 18°
2026-05-03 22:35 38.18437 13.10531 59 ft 11 kts 45°
2026-05-03 22:36 38.18471 13.10611 59 ft 10 kts 65°
2026-05-03 22:36 38.18495 13.10685 61 ft 8 kts 60°
2026-05-03 22:36 38.18536 13.10679 63 ft 6 kts 339°
2026-05-03 22:36 38.18558 13.10668 61 ft 2 kts 336°
2026-05-03 22:37 38.18566 13.10664 63 ft 0 kts 336°